Kenansville, NC

4:35 PM EDT on October 19, 2019 (GMT -0400)
Duplin County

Weather History for KDPL - August, 2019

Change the Weather History Date:

Tuesday, August 27, 2019

  Actual Average (WUND) Record (WUND)
Temperature  
Mean Temperature 75 °F -  
Max Temperature 82 °F - - (-1)
Min Temperature 68 °F - - (-1)
Cooling Degree Days 10    
Growing Degree Days 25 (Base 50)    
Moisture  
Dew Point 68 °F    
Average Humidity 92    
Maximum Humidity 100    
Minimum Humidity 66    
Precipitation  
Precipitation 0.00 in - - ()
Sea Level Pressure  
Sea Level Pressure 30.02 in    
Wind  
Wind Speed 3 mph (NNE)    
Max Wind Speed 7 mph    
Max Gust Speed -    
Visibility 7 miles    
Events      
Averages and records for this station are not official NWS values.
T = Trace of Precipitation, MM = Missing Value Source: NWS Daily Summary

Daily Weather History Graph

Daily Weather History Graph

Search for Another Location

Airport or City:

Astronomy

Aug. 27, 2019 Rise Set
Actual Time 6:40 AM EDT 7:45 PM EDT
Civil Twilight 6:14 AM EDT 8:11 PM EDT
Nautical Twilight 5:43 AM EDT 8:42 PM EDT
Astronomical Twilight 5:11 AM EDT 9:14 PM EDT
Moon 3:11 AM EDT (8/27) 5:56 PM EDT (8/27)
Length of Visible Light 13h 57m
Length of Day
13h 04m
Waning Crescent, 11% of the Moon is Illuminated
Aug 27
Waning Crescent
Aug 30
New
Sep 5
First Quarter
Sep 14
Full
Sep 21
Last Quarter

Hourly Weather History & Observations

Time (EDT) Temp. Heat Index Dew Point Humidity Pressure Visibility Wind Dir Wind Speed Gust Speed Precip Events Conditions
12:15 AM 69.8 °F - 68.0 °F 94% 30.07 in 7.0 mi North 4.6 mph - N/A   Mostly Cloudy
12:35 AM 68.0 °F - 68.0 °F 100% 30.07 in 7.0 mi Calm Calm - N/A   Mostly Cloudy
12:55 AM 68.0 °F - 68.0 °F 100% 30.07 in 7.0 mi Calm Calm - N/A   Scattered Clouds
1:15 AM 68.0 °F - 68.0 °F 100% 30.06 in 7.0 mi Calm Calm - N/A   Mostly Cloudy
1:35 AM 68.0 °F - 68.0 °F 100% 30.06 in 7.0 mi Calm Calm - N/A   Overcast
1:55 AM 68.0 °F - 68.0 °F 100% 30.05 in 7.0 mi Calm Calm - N/A   Overcast
2:15 AM 68.0 °F - 68.0 °F 100% 30.04 in 7.0 mi Calm Calm - N/A   Overcast
2:35 AM 68.0 °F - 68.0 °F 100% 30.03 in 7.0 mi NNE 3.5 mph - N/A   Overcast
2:55 AM 69.8 °F - 68.0 °F 94% 30.03 in 7.0 mi NNE 3.5 mph - N/A   Overcast
3:15 AM 69.8 °F - 68.0 °F 94% 30.03 in 7.0 mi NNE 3.5 mph - N/A   Overcast
3:35 AM 69.8 °F - 68.0 °F 94% 30.02 in 5.0 mi NNE 3.5 mph - N/A   Overcast
3:55 AM 68.0 °F - 68.0 °F 100% 30.01 in 5.0 mi NNE 5.8 mph - N/A   Overcast
4:15 AM 68.0 °F - 68.0 °F 100% 30.01 in 4.0 mi NNE 4.6 mph - N/A   Overcast
4:35 AM 68.0 °F - 68.0 °F 100% 30.00 in 5.0 mi NE 3.5 mph - N/A   Overcast
4:55 AM 68.0 °F - 68.0 °F 100% 29.99 in 5.0 mi NNE 3.5 mph - N/A   Overcast
5:15 AM 68.0 °F - 68.0 °F 100% 29.99 in 4.0 mi NNE 3.5 mph - N/A   Overcast
5:35 AM 68.0 °F - 68.0 °F 100% 29.99 in 2.5 mi NNE 4.6 mph - N/A   Overcast
5:55 AM 68.0 °F - 68.0 °F 100% 29.98 in 2.5 mi NNE 4.6 mph - N/A   Overcast
6:15 AM 68.0 °F - 68.0 °F 100% 29.99 in 4.0 mi NNE 4.6 mph - N/A   Overcast
6:35 AM 68.0 °F - 68.0 °F 100% 29.99 in 5.0 mi North 6.9 mph - N/A   Overcast
6:55 AM 68.0 °F - 68.0 °F 100% 30.00 in 7.0 mi NNE 4.6 mph - N/A   Overcast
7:15 AM 68.0 °F - 68.0 °F 100% 30.01 in 7.0 mi North 4.6 mph - N/A   Overcast
7:35 AM 68.0 °F - 68.0 °F 100% 30.02 in 7.0 mi North 6.9 mph - N/A   Overcast
7:55 AM 68.0 °F - 68.0 °F 100% 30.02 in 7.0 mi North 5.8 mph - N/A   Overcast
8:15 AM 68.0 °F - 68.0 °F 100% 30.03 in 7.0 mi North 5.8 mph - N/A   Overcast
8:35 AM 69.8 °F - 68.0 °F 94% 30.04 in 7.0 mi North 6.9 mph - N/A   Overcast
8:55 AM 69.8 °F - 68.0 °F 94% 30.05 in 7.0 mi NNW 6.9 mph - N/A   Overcast
9:15 AM 69.8 °F - 68.0 °F 94% 30.05 in 7.0 mi NNW 6.9 mph - N/A   Overcast
9:35 AM 69.8 °F - 68.0 °F 94% 30.05 in 5.0 mi North 4.6 mph - N/A   Overcast
9:55 AM 71.6 °F - 68.0 °F 88% 30.05 in 7.0 mi NNE 5.8 mph - N/A   Overcast
10:15 AM 71.6 °F - 68.0 °F 88% 30.05 in 7.0 mi Calm Calm - N/A   Overcast
10:35 AM 73.4 °F - 68.0 °F 83% 30.05 in 7.0 mi Calm Calm - N/A   Overcast
10:55 AM 73.4 °F - 69.8 °F 88% 30.04 in 7.0 mi North 4.6 mph - N/A   Overcast
11:15 AM 75.2 °F - 69.8 °F 83% 30.04 in 7.0 mi North 3.5 mph - N/A   Overcast
11:35 AM 75.2 °F - 69.8 °F 83% 30.03 in 7.0 mi North 4.6 mph - N/A   Overcast
11:55 AM 77.0 °F - 69.8 °F 78% 30.03 in 7.0 mi North 3.5 mph - N/A   Overcast
12:15 PM 77.0 °F - 69.8 °F 78% 30.02 in 7.0 mi NNE 4.6 mph - N/A   Overcast
12:35 PM 77.0 °F - 69.8 °F 78% 30.01 in 10.0 mi North 4.6 mph - N/A   Mostly Cloudy
12:55 PM 78.8 °F - 69.8 °F 74% 30.00 in 10.0 mi ENE 4.6 mph - N/A   Mostly Cloudy
1:15 PM 80.6 °F 83.9 °F 69.8 °F 70% 29.99 in 10.0 mi Calm Calm - N/A   Mostly Cloudy
1:35 PM 80.6 °F 83.9 °F 69.8 °F 70% 29.99 in 7.0 mi Calm Calm - N/A   Mostly Cloudy
1:55 PM 82.4 °F 86.3 °F 69.8 °F 66% 29.98 in 10.0 mi NNE 5.8 mph - N/A   Mostly Cloudy
2:15 PM 80.6 °F 83.9 °F 69.8 °F 70% 29.97 in 10.0 mi ESE 4.6 mph - N/A   Mostly Cloudy